2014-11-30 00:01:25 r, 19.01m,0000000002Hz,0000219580c,0000000.477s,-003.6C,00002191
2014-11-30 00:11:24 r, 18.91m,0000000002Hz,0000199494c,0000000.433s,-003.6C,00002191
2014-11-30 00:21:24 r, 19.56m,0000000001Hz,0000362669c,0000000.787s,-003.6C,00002191
2014-11-30 00:31:26 r, 20.20m,0000000001Hz,0000649757c,0000001.410s,-003.9C,00002191
2014-11-30 00:41:24 r, 20.30m,0000000001Hz,0000711347c,0000001.544s,-004.2C,00002191
2014-11-30 00:51:27 r, 20.37m,0000000001Hz,0000760102c,0000001.650s,-004.6C,00002191
2014-11-30 01:01:27 r, 20.42m,0000000001Hz,0000798153c,0000001.732s,-004.9C,00002191
2014-11-30 01:11:27 r, 20.43m,0000000001Hz,0000804875c,0000001.747s,-005.2C,00002191
2014-11-30 01:21:24 r, 20.43m,0000000001Hz,0000799352c,0000001.735s,-005.5C,00002191
2014-11-30 01:31:27 r, 20.45m,0000000000Hz,0000821735c,0000001.783s,-005.9C,00002191
2014-11-30 01:41:24 r, 20.44m,0000000001Hz,0000807381c,0000001.752s,-006.2C,00002191
2014-11-30 01:51:26 r, 20.35m,0000000001Hz,0000747894c,0000001.623s,-006.2C,00002191
2014-11-30 02:01:26 r, 20.34m,0000000001Hz,0000741304c,0000001.609s,-006.5C,00002191
2014-11-30 02:11:26 r, 20.18m,0000000001Hz,0000639426c,0000001.388s,-006.5C,00002191
2014-11-30 02:21:24 r, 20.48m,0000000000Hz,0000846425c,0000001.837s,-006.8C,00002191
2014-11-30 02:31:24 r, 20.38m,0000000000Hz,0000769083c,0000001.669s,-007.1C,00002191
2014-11-30 02:41:24 r, 20.45m,0000000000Hz,0000818756c,0000001.777s,-007.5C,00002191
2014-11-30 02:51:26 r, 20.39m,0000000001Hz,0000776608c,0000001.685s,-007.8C,00002191
2014-11-30 03:01:24 r, 19.99m,0000000001Hz,0000537479c,0000001.166s,-007.8C,00002191
2014-11-30 03:11:27 r, 19.73m,0000000001Hz,0000423280c,0000000.919s,-007.8C,00002191
2014-11-30 03:21:26 r, 20.38m,0000000000Hz,0000769690c,0000001.670s,-007.8C,00002191
2014-11-30 03:31:25 r, 20.44m,0000000000Hz,0000811948c,0000001.762s,-007.5C,00002191
2014-11-30 03:41:24 r, 20.48m,0000000001Hz,0000839793c,0000001.822s,-007.8C,00002191
2014-11-30 03:51:25 r, 20.49m,0000000001Hz,0000848739c,0000001.842s,-008.1C,00002191
2014-11-30 04:01:24 r, 20.47m,0000000001Hz,0000846806c,0000001.838s,-008.4C,00002191
2014-11-30 04:11:25 r, 20.47m,0000000000Hz,0000846595c,0000001.837s,-008.8C,00002191
2014-11-30 04:21:24 r, 20.47m,0000000000Hz,0000842342c,0000001.828s,-009.1C,00002191
2014-11-30 04:31:27 r, 20.47m,0000000000Hz,0000841003c,0000001.825s,-009.4C,00002191
2014-11-30 04:41:24 r, 20.47m,0000000001Hz,0000837106c,0000001.817s,-009.7C,00002191
2014-11-30 04:51:27 r, 20.45m,0000000001Hz,0000830380c,0000001.802s,-010.0C,00002191
2014-11-30 05:01:24 r, 20.43m,0000000000Hz,0000811578c,0000001.761s,-010.0C,00002191
2014-11-30 05:11:27 r, 20.45m,0000000001Hz,0000821682c,0000001.783s,-010.4C,00002191
2014-11-30 05:21:24 r, 20.46m,0000000001Hz,0000835203c,0000001.813s,-010.4C,00002191
2014-11-30 05:31:25 r, 20.47m,0000000000Hz,0000837064c,0000001.817s,-010.4C,00002191
2014-11-30 05:41:24 r, 20.47m,0000000000Hz,0000839876c,0000001.823s,-010.4C,00002191
2014-11-30 05:51:25 r, 20.47m,0000000001Hz,0000846910c,0000001.838s,-010.7C,00002191
2014-11-30 06:01:24 r, 20.48m,0000000001Hz,0000850415c,0000001.846s,-010.7C,00002191
2014-11-30 06:11:25 r, 20.47m,0000000001Hz,0000847314c,0000001.839s,-010.7C,00002191
2014-11-30 06:21:24 r, 20.43m,0000000000Hz,0000811638c,0000001.761s,-010.7C,00002191
2014-11-30 06:31:26 r, 20.26m,0000000001Hz,0000693373c,0000001.505s,-010.7C,00002191
2014-11-30 06:41:24 r, 19.72m,0000000001Hz,0000423294c,0000000.919s,-011.0C,00002191
2014-11-30 06:51:27 r, 18.66m,0000000003Hz,0000159241c,0000000.346s,-011.0C,00002191
2014-11-30 07:01:25 r, 17.21m,0000000011Hz,0000042069c,0000000.091s,-011.0C,00002191
2014-11-30 07:11:25 r, 15.59m,0000000048Hz,0000009426c,0000000.020s,-011.3C,00002191
2014-11-30 07:21:24 r, 13.80m,0000000254Hz,0000000000c,0000000.000s,-011.3C,00002191
2014-11-30 07:31:25 r, 11.92m,0000001444Hz,0000000000c,0000000.000s,-011.3C,00002191
2014-11-30 07:41:24 r, 10.14m,0000007397Hz,0000000000c,0000000.000s,-011.3C,00002191
2014-11-30 07:51:25 r, 08.74m,0000027093Hz,0000000000c,0000000.000s,-011.0C,00002191
2014-11-30 08:01:26 r, 07.73m,0000068973Hz,0000000000c,0000000.000s,-011.0C,00002191
2014-11-30 08:11:27 r, 06.97m,0000137361Hz,0000000000c,0000000.000s,-011.0C,00002191
2014-11-30 08:21:24 r, 06.25m,0000267805Hz,0000000000c,0000000.000s,-010.7C,00002191
2014-11-30 08:31:26 r, 00.00m,0000439816Hz,0000000000c,0000000.000s,-010.4C,00002191
2014-11-30 08:41:24 r, 00.00m,0000597783Hz,0000000000c,0000000.000s,-009.4C,00002191
2014-11-30 08:51:27 r, 00.00m,0000597632Hz,0000000000c,0000000.000s,-008.4C,00002191
2014-11-30 09:01:25 r, 00.00m,0000597505Hz,0000000000c,0000000.000s,-007.5C,00002191
2014-11-30 09:11:25 r, 00.00m,0000597700Hz,0000000000c,0000000.000s,-006.2C,00002191
2014-11-30 09:21:25 r, 00.00m,0000597451Hz,0000000000c,0000000.000s,-005.5C,00002191
2014-11-30 09:31:25 r, 00.00m,0000597517Hz,0000000000c,0000000.000s,-004.6C,00002191
2014-11-30 09:41:24 r, 00.00m,0000597415Hz,0000000000c,0000000.000s,-004.2C,00002191
2014-11-30 09:51:25 r, 00.00m,0000597403Hz,0000000000c,0000000.000s,-003.3C,00002191
2014-11-30 10:01:24 r, 00.00m,0000597360Hz,0000000000c,0000000.000s,-002.6C,00002191
2014-11-30 10:11:27 r, 00.00m,0000597248Hz,0000000000c,0000000.000s,-002.3C,00002191
2014-11-30 10:21:24 r, 00.00m,0000597322Hz,0000000000c,0000000.000s,-001.7C,00002191
2014-11-30 10:31:27 r, 00.00m,0000597183Hz,0000000000c,0000000.000s,-001.0C,00002191
2014-11-30 10:41:28 r, 00.00m,0000597302Hz,0000000000c,0000000.000s,-001.0C,00002191
2014-11-30 10:51:25 r, 00.00m,0000597209Hz,0000000000c,0000000.000s,-000.7C,00002191
2014-11-30 11:01:24 r, 00.00m,0000597153Hz,0000000000c,0000000.000s, 000.1C,00002191
2014-11-30 11:11:26 r, 00.00m,0000597067Hz,0000000000c,0000000.000s, 000.1C,00002191
2014-11-30 11:21:24 r, 00.00m,0000597014Hz,0000000000c,0000000.000s, 000.3C,00002191
2014-11-30 11:31:27 r, 00.00m,0000596972Hz,0000000000c,0000000.000s, 001.2C,00002191
2014-11-30 11:41:24 r, 00.00m,0000596908Hz,0000000000c,0000000.000s, 002.2C,00002191
2014-11-30 11:51:26 r, 00.00m,0000596885Hz,0000000000c,0000000.000s, 002.9C,00002191
2014-11-30 12:01:25 r, 00.00m,0000596977Hz,0000000000c,0000000.000s, 002.9C,00002191
2014-11-30 12:11:27 r, 00.00m,0000597046Hz,0000000000c,0000000.000s, 000.6C,00002191
2014-11-30 12:21:24 r, 00.00m,0000597348Hz,0000000000c,0000000.000s,-001.3C,00002191
2014-11-30 12:31:26 r, 00.00m,0000597334Hz,0000000000c,0000000.000s,-002.3C,00002191
2014-11-30 12:41:24 r, 00.00m,0000597358Hz,0000000000c,0000000.000s,-003.0C,00002191
2014-11-30 12:51:25 r, 00.00m,0000597406Hz,0000000000c,0000000.000s,-003.0C,00002191
2014-11-30 13:01:25 r, 00.00m,0000597397Hz,0000000000c,0000000.000s,-003.3C,00002191
2014-11-30 13:11:24 r, 00.00m,0000597404Hz,0000000000c,0000000.000s,-003.3C,00002191
2014-11-30 13:21:26 r, 00.00m,0000597313Hz,0000000000c,0000000.000s,-003.3C,00002191
2014-11-30 13:31:25 r, 00.00m,0000597310Hz,0000000000c,0000000.000s,-003.3C,00002191
2014-11-30 13:41:24 r, 00.00m,0000597364Hz,0000000000c,0000000.000s,-003.3C,00002191
2014-11-30 13:51:24 r, 00.00m,0000597362Hz,0000000000c,0000000.000s,-003.3C,00002191
2014-11-30 14:01:25 r, 00.00m,0000597438Hz,0000000000c,0000000.000s,-003.3C,00002191
2014-11-30 14:11:29 r, 00.00m,0000597340Hz,0000000000c,0000000.000s,-003.0C,00002191
2014-11-30 14:21:24 r, 00.00m,0000597353Hz,0000000000c,0000000.000s,-003.3C,00002191
2014-11-30 14:31:25 r, 00.00m,0000597353Hz,0000000000c,0000000.000s,-003.3C,00002191
2014-11-30 14:41:25 r, 00.00m,0000597487Hz,0000000000c,0000000.000s,-003.3C,00002191
2014-11-30 14:51:25 r, 00.00m,0000597396Hz,0000000000c,0000000.000s,-003.3C,00002191
2014-11-30 15:01:25 r, 00.00m,0000597435Hz,0000000000c,0000000.000s,-003.6C,00002191
2014-11-30 15:11:25 r, 00.00m,0000597383Hz,0000000000c,0000000.000s,-003.6C,00002191
2014-11-30 15:21:26 r, 00.00m,0000597344Hz,0000000000c,0000000.000s,-003.3C,00002191
2014-11-30 15:31:27 r, 00.00m,0000597365Hz,0000000000c,0000000.000s,-002.6C,00002191
2014-11-30 15:41:24 r, 00.00m,0000597327Hz,0000000000c,0000000.000s,-002.3C,00002191
2014-11-30 15:51:27 r, 00.00m,0000567684Hz,0000000000c,0000000.000s,-002.3C,00002191
2014-11-30 16:01:24 r, 00.00m,0000417680Hz,0000000000c,0000000.000s,-002.3C,00002191
2014-11-30 16:11:25 r, 06.19m,0000283314Hz,0000000000c,0000000.000s,-003.0C,00002191
2014-11-30 16:21:24 r, 06.77m,0000166662Hz,0000000000c,0000000.000s,-003.6C,00002191
2014-11-30 16:31:25 r, 07.52m,0000083281Hz,0000000000c,0000000.000s,-004.2C,00002191
2014-11-30 16:41:25 r, 08.53m,0000032652Hz,0000000000c,0000000.000s,-005.2C,00002191
2014-11-30 16:51:25 r, 09.94m,0000009014Hz,0000000000c,0000000.000s,-005.9C,00002191
2014-11-30 17:01:24 r, 11.68m,0000001800Hz,0000000000c,0000000.000s,-006.5C,00002191
2014-11-30 17:11:27 r, 13.58m,0000000315Hz,0000000000c,0000000.000s,-006.8C,00002191
2014-11-30 17:21:24 r, 15.34m,0000000062Hz,0000007510c,0000000.016s,-006.8C,00002191
2014-11-30 17:31:27 r, 16.74m,0000000018Hz,0000027252c,0000000.059s,-006.8C,00002191
2014-11-30 17:41:24 r, 17.56m,0000000008Hz,0000057635c,0000000.125s,-006.8C,00002191
2014-11-30 17:51:26 r, 17.90m,0000000006Hz,0000078399c,0000000.170s,-006.8C,00002191
2014-11-30 18:01:24 r, 17.92m,0000000006Hz,0000080763c,0000000.175s,-006.8C,00002191
2014-11-30 18:11:25 r, 17.96m,0000000006Hz,0000083482c,0000000.181s,-006.8C,00002191
2014-11-30 18:21:24 r, 17.95m,0000000006Hz,0000082248c,0000000.178s,-006.8C,00002191
2014-11-30 18:31:25 r, 17.92m,0000000005Hz,0000080542c,0000000.175s,-006.8C,00002191
2014-11-30 18:41:24 r, 17.90m,0000000006Hz,0000078824c,0000000.171s,-006.8C,00002191
2014-11-30 18:51:25 r, 17.88m,0000000006Hz,0000076919c,0000000.167s,-006.8C,00002191
2014-11-30 19:01:24 r, 17.85m,0000000006Hz,0000075070c,0000000.163s,-006.8C,00002191
2014-11-30 19:11:26 r, 17.83m,0000000006Hz,0000074164c,0000000.161s,-006.8C,00002191
2014-11-30 19:21:24 r, 17.83m,0000000007Hz,0000073841c,0000000.160s,-006.8C,00002191
2014-11-30 19:31:26 r, 17.83m,0000000006Hz,0000073875c,0000000.160s,-006.8C,00002191
2014-11-30 19:41:25 r, 17.84m,0000000006Hz,0000074356c,0000000.161s,-006.8C,00002191
2014-11-30 19:51:25 r, 17.85m,0000000006Hz,0000074758c,0000000.162s,-006.8C,00002191
2014-11-30 20:01:24 r, 17.85m,0000000006Hz,0000074849c,0000000.162s,-006.8C,00002191
2014-11-30 20:11:25 r, 17.85m,0000000006Hz,0000075649c,0000000.164s,-007.1C,00002191
2014-11-30 20:21:26 r, 17.88m,0000000006Hz,0000076852c,0000000.167s,-007.1C,00002191
2014-11-30 20:31:25 r, 17.88m,0000000006Hz,0000077747c,0000000.169s,-007.1C,00002191
2014-11-30 20:41:24 r, 17.91m,0000000006Hz,0000079603c,0000000.173s,-007.1C,00002191
2014-11-30 20:51:26 r, 17.94m,0000000005Hz,0000081409c,0000000.177s,-007.5C,00002191
2014-11-30 21:01:24 r, 17.95m,0000000005Hz,0000082782c,0000000.180s,-007.5C,00002191
2014-11-30 21:11:28 r, 17.99m,0000000006Hz,0000085238c,0000000.185s,-007.5C,00002191
2014-11-30 21:21:24 r, 17.99m,0000000005Hz,0000085926c,0000000.186s,-007.5C,00002191
2014-11-30 21:31:25 r, 18.03m,0000000005Hz,0000088325c,0000000.192s,-007.5C,00002191
2014-11-30 21:41:25 r, 18.06m,0000000006Hz,0000091004c,0000000.197s,-007.5C,00002191
2014-11-30 21:51:25 r, 18.09m,0000000005Hz,0000093926c,0000000.204s,-007.8C,00002191
2014-11-30 22:01:24 r, 18.14m,0000000005Hz,0000098087c,0000000.213s,-007.8C,00002191
2014-11-30 22:11:24 r, 18.18m,0000000004Hz,0000101680c,0000000.221s,-007.8C,00002191
2014-11-30 22:21:24 r, 18.21m,0000000005Hz,0000104816c,0000000.227s,-008.1C,00002191
2014-11-30 22:31:26 r, 18.25m,0000000005Hz,0000108619c,0000000.236s,-008.1C,00002191
2014-11-30 22:41:25 r, 18.29m,0000000004Hz,0000114146c,0000000.248s,-008.4C,00002191
2014-11-30 22:51:26 r, 18.34m,0000000003Hz,0000119157c,0000000.259s,-008.8C,00002191
2014-11-30 23:01:25 r, 18.39m,0000000003Hz,0000124884c,0000000.271s,-008.8C,00002191
2014-11-30 23:11:26 r, 18.45m,0000000004Hz,0000131450c,0000000.285s,-009.1C,00002191
2014-11-30 23:21:24 r, 18.51m,0000000003Hz,0000139107c,0000000.302s,-009.4C,00002191
2014-11-30 23:31:25 r, 18.57m,0000000003Hz,0000146949c,0000000.319s,-009.4C,00002191
2014-11-30 23:41:25 r, 18.63m,0000000002Hz,0000155624c,0000000.338s,-009.7C,00002191
2014-11-30 23:51:26 r, 18.70m,0000000003Hz,0000165110c,0000000.358s,-009.7C,00002191
